Location: Home
(42.5358°N, 72.7383°W)
Time: 04:13:01
(UTC-04:00)

Vanguard 1 - Pass Details

Date: 02 June 2022
Orbit: 649 x 3832 km, 34.2° (Epoch: 24 June)

Event Time Altitude Azimuth Distance (km) Brightness Sun altitude
Exits shadow 00:56:30 23° 229° (SW) 3,222 12.3 -25.3°
Maximum altitude 01:04:12 56° 161° (SSE) 2,717 11.9 -25.2°
Drops below altitude 10° 01:22:36 10° 91° (E) 6,488 14.3 -24.8°
Sets 01:28:27 0° 88° (E) 7,782 14.8 -24.6°
